Weather History for Caldwell, ID

Change the Weather History Date:

Monday, August 25, 2014

  Actual Average (KBOI) Record (KBOI)
Temperature  
Mean Temperature 66 °F 72 °F  
Max Temperature 75 °F 87 °F 100 °F (1888)
Min Temperature 57 °F 58 °F 32 °F (1892)
Degree Days  
Heating Degree Days 0 0  
Month to date heating degree days 0  
Since 1 June heating degree days 72  
Since 1 July heating degree days 8  
Cooling Degree Days 1 8  
Month to date cooling degree days 264  
Year to date cooling degree days 789  
Since 1 June cooling degree days 745  
Growing Degree Days 16 (Base 50)    
Moisture  
Dew Point 43 °F    
Average Humidity 45    
Maximum Humidity 59    
Minimum Humidity 36    
Precipitation  
Precipitation 0.00 in 0.01 in 0.20 in (1920)
Month to date precipitation 0.18  
Year to date precipitation 7.44  
Snow  
Snow 0.00 in 0.00 in 0.00 in (2006)
Month to date snowfall 0.0  
Since 1 July snowfall 0.0  
Snow Depth -    
Sea Level Pressure  
Sea Level Pressure 29.99 in    
Wind  
Wind Speed 7 mph (SE)    
Max Wind Speed 16 mph    
Max Gust Speed 21 mph    
Visibility 10 miles    
Events      
T = Trace of Precipitation, MM = Missing Value Source: NWS Daily Summary

Daily Weather History Graph

Daily Weather History Graph

Search for Another Location

Airport:

Trip Planner

Search our weather history database for the weather conditions in past years. The results will help you decide how hot, cold, wet, or windy it might be!

Date:

Astronomy

Aug. 25, 2014 Rise Set
Actual Time 7:02 AM MDT 8:33 PM MDT
Civil Twilight 6:32 AM MDT 9:03 PM MDT
Nautical Twilight 5:55 AM MDT 9:40 PM MDT
Astronomical Twilight 5:16 AM MDT 10:18 PM MDT
Moon 7:13 AM MDT (8/25) 8:23 PM MDT (8/25)
Length of Visible Light 14h 31m
Length of Day
13h 31m
New Moon, 0% of the Moon is Illuminated
Aug 25
New Moon
Sep 2
First Quarter
Sep 8
Full
Sep 15
Last Quarter
Sep 24
New

Hourly Weather History & Observations

Time (MDT) Temp. Dew Point Humidity Pressure Visibility Wind Dir Wind Speed Gust Speed Precip Events Conditions
12:15 AM 62.6 °F 37.4 °F 39% 29.92 in 10.0 mi NNW 10.4 mph - N/A   Clear
12:35 AM 64.4 °F 37.4 °F 37% 29.92 in 10.0 mi NNW 8.1 mph - N/A   Scattered Clouds
12:55 AM 64.4 °F 39.2 °F 40% 29.92 in 10.0 mi NW 4.6 mph - N/A   Overcast
1:15 AM 62.6 °F 39.2 °F 42% 29.92 in 10.0 mi WNW 8.1 mph - N/A   Scattered Clouds
1:35 AM 62.6 °F 39.2 °F 42% 29.93 in 10.0 mi WSW 8.1 mph - N/A   Mostly Cloudy
1:55 AM 62.6 °F 39.2 °F 42% 29.93 in 10.0 mi West 8.1 mph - N/A   Mostly Cloudy
2:15 AM 62.6 °F 39.2 °F 42% 29.93 in 10.0 mi WNW 8.1 mph - N/A   Partly Cloudy
2:35 AM 62.6 °F 39.2 °F 42% 29.93 in 10.0 mi NNW 6.9 mph - N/A   Mostly Cloudy
3:15 AM 62.6 °F 41.0 °F 45% 29.94 in 10.0 mi NW 9.2 mph - N/A   Overcast
3:35 AM 62.6 °F 41.0 °F 45% 29.95 in 10.0 mi North 6.9 mph - N/A   Overcast
3:55 AM 62.6 °F 41.0 °F 45% 29.94 in 10.0 mi North 9.2 mph - N/A   Overcast
4:15 AM 62.6 °F 41.0 °F 45% 29.94 in 10.0 mi North 5.8 mph - N/A   Scattered Clouds
4:35 AM 60.8 °F 41.0 °F 48% 29.94 in 10.0 mi North 3.5 mph - N/A   Clear
4:55 AM 59.0 °F 41.0 °F 51% 29.95 in 10.0 mi WNW 4.6 mph - N/A   Scattered Clouds
5:15 AM 60.8 °F 41.0 °F 48% 29.95 in 10.0 mi NNW 4.6 mph - N/A   Mostly Cloudy
5:35 AM 60.8 °F 41.0 °F 48% 29.95 in 10.0 mi Calm Calm - N/A   Overcast
5:55 AM 60.8 °F 41.0 °F 48% 29.94 in 10.0 mi Calm Calm - N/A   Overcast
6:15 AM 59.0 °F 42.8 °F 55% 29.95 in 10.0 mi West 3.5 mph - N/A   Mostly Cloudy
6:35 AM 59.0 °F 41.0 °F 51% 29.96 in 10.0 mi SW 3.5 mph - N/A   Partly Cloudy
6:55 AM 59.0 °F 41.0 °F 51% 29.97 in 10.0 mi Calm Calm - N/A   Clear
7:15 AM 57.2 °F 41.0 °F 55% 29.97 in 10.0 mi South 3.5 mph - N/A   Scattered Clouds
7:35 AM 57.2 °F 41.0 °F 55% 29.98 in 10.0 mi Calm Calm - N/A   Scattered Clouds
7:55 AM 57.2 °F 42.8 °F 59% 29.99 in 10.0 mi Calm Calm - N/A   Mostly Cloudy
8:35 AM 59.0 °F 42.8 °F 55% 30.00 in 10.0 mi West 4.6 mph - N/A   Mostly Cloudy
8:55 AM 59.0 °F 42.8 °F 55% 30.00 in 10.0 mi Calm Calm - N/A   Mostly Cloudy
9:15 AM 60.8 °F 42.8 °F 52% 30.01 in 10.0 mi East 3.5 mph - N/A   Mostly Cloudy
9:35 AM 62.6 °F 44.6 °F 52% 30.01 in 10.0 mi ESE 6.9 mph - N/A   Scattered Clouds
9:55 AM 62.6 °F 44.6 °F 52% 30.01 in 10.0 mi SSE 6.9 mph - N/A   Scattered Clouds
10:15 AM 62.6 °F 44.6 °F 52% 30.02 in 10.0 mi SSE 6.9 mph - N/A   Overcast
10:35 AM 64.4 °F 44.6 °F 49% 30.02 in 10.0 mi SE 5.8 mph - N/A   Overcast
10:55 AM 64.4 °F 44.6 °F 49% 30.03 in 10.0 mi SSE 5.8 mph - N/A   Overcast
11:15 AM 66.2 °F 44.6 °F 46% 30.03 in 10.0 mi South 5.8 mph - N/A   Overcast
11:35 AM 66.2 °F 44.6 °F 46% 30.03 in 10.0 mi SE 5.8 mph - N/A   Overcast
11:55 AM 68.0 °F 44.6 °F 43% 30.03 in 10.0 mi SSE 12.7 mph - N/A   Overcast
12:15 PM 71.6 °F 44.6 °F 38% 30.03 in 10.0 mi SSE 6.9 mph - N/A   Mostly Cloudy
12:35 PM 71.6 °F 44.6 °F 38% 30.03 in 10.0 mi ESE 10.4 mph - N/A   Partly Cloudy
12:55 PM 71.6 °F 46.4 °F 41% 30.02 in 10.0 mi SSE 11.5 mph - N/A   Clear
1:15 PM 71.6 °F 46.4 °F 41% 30.02 in 10.0 mi SE 3.5 mph - N/A   Scattered Clouds
1:35 PM 71.6 °F 46.4 °F 41% 30.02 in 10.0 mi ESE 10.4 mph - N/A   Partly Cloudy
1:55 PM 73.4 °F 46.4 °F 38% 30.02 in 10.0 mi SE 16.1 mph 20.7 mph N/A   Partly Cloudy
2:15 PM 73.4 °F 46.4 °F 38% 30.02 in 10.0 mi SSE 12.7 mph 18.4 mph N/A   Clear
2:35 PM 73.4 °F 46.4 °F 38% 30.02 in 10.0 mi SE 11.5 mph 17.3 mph N/A   Clear
2:55 PM 73.4 °F 46.4 °F 38% 30.02 in 10.0 mi ESE 11.5 mph - N/A   Clear
3:15 PM 73.4 °F 48.2 °F 41% 30.01 in 10.0 mi SE 12.7 mph 18.4 mph N/A   Clear
3:35 PM 73.4 °F 46.4 °F 38% 30.01 in 10.0 mi SE 12.7 mph - N/A   Scattered Clouds
3:55 PM 73.4 °F 46.4 °F 38% 30.00 in 10.0 mi SE 11.5 mph 16.1 mph N/A   Scattered Clouds
4:15 PM 73.4 °F 46.4 °F 38% 30.00 in 10.0 mi ESE 6.9 mph 16.1 mph N/A   Clear
4:35 PM 75.2 °F 46.4 °F 36% 30.00 in 10.0 mi SSE 9.2 mph - N/A   Clear
4:55 PM 73.4 °F 46.4 °F 38% 30.00 in 10.0 mi SE 10.4 mph - N/A   Clear
5:15 PM 73.4 °F 46.4 °F 38% 29.99 in 10.0 mi SE 12.7 mph - N/A   Clear
5:35 PM 73.4 °F 44.6 °F 36% 29.99 in 10.0 mi SE 10.4 mph - N/A   Clear
5:55 PM 73.4 °F 44.6 °F 36% 30.00 in 10.0 mi SE 6.9 mph - N/A   Clear
6:15 PM 73.4 °F 44.6 °F 36% 30.00 in 10.0 mi SE 6.9 mph - N/A   Clear
6:35 PM 73.4 °F 44.6 °F 36% 30.00 in 10.0 mi SSW 9.2 mph - N/A   Mostly Cloudy
6:55 PM 73.4 °F 44.6 °F 36% 30.00 in 10.0 mi SSE 6.9 mph - N/A   Mostly Cloudy
7:15 PM 71.6 °F 44.6 °F 38% 30.00 in 10.0 mi SE 4.6 mph - N/A   Partly Cloudy
7:35 PM 71.6 °F 44.6 °F 38% 30.00 in 10.0 mi SE 3.5 mph - N/A   Clear
7:55 PM 71.6 °F 44.6 °F 38% 29.99 in 10.0 mi Calm Calm - N/A   Clear
8:15 PM 69.8 °F 44.6 °F 40% 30.00 in 10.0 mi South 4.6 mph - N/A   Clear
8:35 PM 66.2 °F 44.6 °F 46% 30.00 in 10.0 mi Calm Calm - N/A   Clear
9:15 PM 66.2 °F 44.6 °F 46% 30.01 in 10.0 mi SSW 3.5 mph - N/A   Clear
9:35 PM 64.4 °F 44.6 °F 49% 30.02 in 10.0 mi Calm Calm - N/A   Scattered Clouds
9:55 PM 64.4 °F 44.6 °F 49% 30.02 in 10.0 mi SSW 5.8 mph - N/A   Partly Cloudy
10:15 PM 62.6 °F 44.6 °F 52% 30.02 in 10.0 mi Calm Calm - N/A   Clear
10:35 PM 60.8 °F 42.8 °F 52% 30.03 in 10.0 mi ENE 3.5 mph - N/A   Clear
10:55 PM 59.0 °F 42.8 °F 55% 30.03 in 10.0 mi East 4.6 mph - N/A   Clear
11:15 PM 59.0 °F 42.8 °F 55% 30.04 in 10.0 mi Calm Calm - N/A   Clear
11:35 PM 57.2 °F 42.8 °F 59% 30.04 in 10.0 mi NE 4.6 mph - N/A   Clear
11:55 PM 57.2 °F 42.8 °F 59% 30.04 in 10.0 mi NE 3.5 mph - N/A   Clear